RH
14 14 14 14 15 16 16 16 16 16 17 20 22 23 23 26 24 29 39 43 46 42 46 49 56 62 67 68 67 68 67 67 62 53 48 47 45 44 45 47 49 51 53
15 16 17 18 19 19 19 18 16 16 15 15 16 18 22 25 25 24 23 23 27 33 37 40 41 49 59 65 66 69 73 74 74 75 65 55 54 53 52 52 53 56 59
12 12 13 14 16 18 19 19 20 20 19 19 18 17 17 17 17 18 18 19 19 18 17 19 25 33 40 54 62 69 74 76 73 77 81 76 60 61 66 64 62 63 63
12 13 14 15 16 17 17 18 18 19 20 21 23 23 23 22 22 22 22 22 22 22 22 23 23 24 27 36 47 57 66 83 97 74 74 81 86 70 66 72 73 73 73
10 12 15 18 19 18 18 19 21 23 24 25 27 27 26 26 27 28 29 30 30 31 32 31 31 31 31 31 33 38 48 56 65 73 76 75 76 89 91 76 75 79 79
12 14 17 19 21 23 23 24 25 27 29 30 31 30 28 29 29 29 29 30 32 34 33 33 32 31 31 31 32 34 34 36 43 53 64 81 83 82 86 91 95 89 90
14 17 19 22 24 27 28 28 29 31 33 33 32 29 28 28 30 31 31 30 29 30 30 30 32 33 34 35 36 36 35 34 33 36 45 61 80 83 90 98 91 95 98
14 19 22 25 27 27 29 30 30 32 34 34 33 32 32 30 34 30 29 27 25 28 29 31 32 34 37 40 43 44 44 44 44 41 36 38 47 72 76 87 87 94 96
13 20 24 27 29 29 30 31 34 37 35 34 37 39 37 32 32 28 25 22 22 26 28 31 34 37 41 48 53 52 52 53 56 53 56 48 39 46 60 77 78 87 90
11 16 25 28 30 32 33 35 37 41 42 40 36 33 34 35 35 30 26 24 26 29 29 33 36 45 54 60 66 66 61 59 61 62 62 68 62 60 57 67 85 87 97
10 15 21 27 31 33 34 37 38 40 38 35 34 34 33 32 32 36 29 27 26 27 29 34 37 51 59 69 73 78 83 85 77 70 75 70 68 74 80 87 88 95 97
9 11 18 18 24 33 34 35 33 33 34 33 33 33 33 35 37 37 35 31 29 28 31 37 43 48 56 63 72 83 90 95 98 94 79 74 86 90 82 85 81 89 86
12 11 15 16 20 27 27 29 31 31 32 31 31 31 33 35 36 38 38 36 37 33 34 34 39 51 55 58 61 75 86 93 97 99 90 77 93 95 91 87 88 86 80
14 14 11 14 18 23 26 26 28 30 30 30 31 31 30 35 36 40 43 42 42 42 39 37 38 43 48 52 55 64 74 89 95 91 94 90 92 98 98 92 83 80 80
16 16 15 12 15 18 21 22 25 26 27 28 26 27 29 34 37 41 43 44 45 46 46 46 44 43 43 46 49 56 61 71 80 73 75 88 92 93 92 88 80 78 78
16 15 16 17 15 14 16 17 20 22 23 24 25 24 29 30 34 39 40 39 40 43 46 46 48 51 51 50 51 54 54 56 58 61 61 62 73 77 76 69 64 63 61
16 15 15 17 17 14 13 16 18 21 22 24 23 20 24 25 30 34 39 41 42 43 42 45 45 43 42 39 43 58 54 50 51 51 50 54 57 56 55 53 52 49 46
19 18 17 17 17 16 12 10 13 17 19 20 21 20 18 16 24 28 33 34 36 42 43 44 41 35 29 33 41 48 54 56 54 49 45 45 41 38 36 38 36 36 35
21 22 21 20 19 18 16 13 10 11 15 18 19 18 15 11 15 16 26 33 33 34 38 41 40 33 28 34 40 43 50 53 50 47 47 44 38 32 30 28 30 27 26
21 21 21 23 23 23 21 19 16 13 12 14 16 16 12 12 13 13 15 18 20 23 27 29 23 18 27 33 36 41 42 39 38 38 35 29 23 23 23 23 21 19 19
30 28 25 23 22 24 26 24 22 19 17 15 14 13 13 13 13 13 13 13 14 14 14 15 16 16 19 24 25 23 21 19 20 22 25 28 31 30 29 29 30 31 31
42 39 36 31 31 27 26 28 28 26 23 20 17 15 14 13 13 13 13 13 13 14 14 14 15 16 16 16 16 16 15 15 18 20 24 26 28 30 32 31 31 31 34
51 50 48 45 41 37 36 38 37 33 30 28 25 22 19 16 15 15 14 13 13 13 14 14 15 16 16 16 16 16 16 17 17 18 20 23 27 31 33 37 38 37 38
41 46 51 54 55 55 51 48 47 48 46 41 36 31 28 24 20 18 17 15 14 14 14 14 15 16 16 17 17 17 17 17 17 18 21 25 29 34 37 40 43 44 43
32 36 39 42 45 48 51 59 64 64 61 56 50 47 43 38 31 27 23 20 17 16 16 15 15 16 16 16 17 17 17 17 17 19 23 28 33 35 41 46 48 47 47
30 33 36 40 44 46 48 51 55 57 61 71 75 72 66 61 54 45 39 32 27 23 20 19 18 18 18 18 18 18 19 19 20 22 26 34 39 40 45 50 51 49 46